| time (UTC) | temp F | wind direction | speed MPH | gust MPH | rain 1hr in | rain 24hr in | rain mn in | humidity % | barometer mb |
| 20260504184952 | 69 | 216 | 7.0 | 10.0 | 0.00 | 0.00 | 0.00 | 43 | 1025.0 |
| 20260504184447 | 70 | 210 | 3.0 | 3.0 | 0.00 | 0.00 | 0.00 | 43 | 1025.0 |
| 20260504183943 | 69 | 259 | 7.0 | 8.0 | 0.00 | 0.00 | 0.00 | 43 | 1024.9 |
| 20260504183440 | 69 | 295 | 11.0 | 15.0 | 0.00 | 0.00 | 0.00 | 42 | 1025.0 |
| 20260504182938 | 69 | 234 | 4.0 | 6.0 | 0.00 | 0.00 | 0.00 | 45 | 1024.8 |
| 20260504182435 | 67 | 183 | 3.0 | 3.0 | 0.00 | 0.00 | 0.00 | 47 | 1025.0 |
| 20260504181933 | 69 | 304 | 5.0 | 7.0 | 0.00 | 0.00 | 0.00 | 45 | 1024.9 |
| 20260504181429 | 68 | 199 | 6.0 | 7.0 | 0.00 | 0.00 | 0.00 | 44 | 1024.9 |
| 20260504180928 | 68 | 278 | 7.0 | 9.0 | 0.00 | 0.00 | 0.00 | 45 | 1025.1 |
| 20260504180426 | 67 | 197 | 9.0 | 13.0 | 0.00 | 0.00 | 0.00 | 45 | 1025.1 |
| 20260504175924 | 67 | 239 | 5.0 | 8.0 | 0.00 | 0.00 | 0.00 | 46 | 1025.1 |
| 20260504175421 | 67 | 266 | 7.0 | 10.0 | 0.00 | 0.00 | 0.00 | 46 | 1024.9 |
| 20260504174919 | 67 | 237 | 7.0 | 13.0 | 0.00 | 0.00 | 0.00 | 46 | 1025.3 |
| 20260504174416 | 67 | 249 | 5.0 | 7.0 | 0.00 | 0.00 | 0.00 | 46 | 1025.2 |
| 20260504173913 | 67 | 218 | 4.0 | 5.0 | 0.00 | 0.00 | 0.00 | 49 | 1025.3 |
| 20260504173409 | 68 | 244 | 6.0 | 9.0 | 0.00 | 0.00 | 0.00 | 49 | 1025.4 |
| 20260504172907 | 67 | 205 | 7.0 | 8.0 | 0.00 | 0.00 | 0.00 | 46 | 1025.3 |
| 20260504172403 | 67 | 264 | 6.0 | 7.0 | 0.00 | 0.00 | 0.00 | 50 | 1025.1 |
| 20260504171859 | 66 | 280 | 11.0 | 13.0 | 0.00 | 0.00 | 0.00 | 48 | 1025.2 |
| 20260504171357 | 66 | 272 | 9.0 | 9.0 | 0.00 | 0.00 | 0.00 | 50 | 1025.2 |
| 20260504170854 | 65 | 251 | 10.0 | 14.0 | 0.00 | 0.00 | 0.00 | 49 | 1025.3 |
| 20260504170350 | 65 | 325 | 6.0 | 8.0 | 0.00 | 0.00 | 0.00 | 49 | 1025.5 |
| 20260504160309 | 62 | 174 | 5.0 | 6.0 | 0.00 | 0.00 | 0.00 | 52 | 1025.7 |
| 20260504150734 | 59 | 279 | 10.0 | 14.0 | 0.00 | 0.00 | 0.00 | 55 | 1026.5 |
| 20260504150231 | 59 | 248 | 5.0 | 5.0 | 0.00 | 0.00 | 0.00 | 57 | 1026.2 |
| 20260504141200 | 57 | 221 | 6.0 | 8.0 | 0.00 | 0.00 | 0.00 | 58 | 1026.5 |
| 20260504140657 | 56 | 184 | 2.0 | 2.0 | 0.00 | 0.00 | 0.00 | 58 | 1026.6 |
| 20260504140152 | 57 | 253 | 4.0 | 5.0 | 0.00 | 0.00 | 0.00 | 58 | 1026.4 |
| 20260504130621 | 53 | 207 | 5.0 | 6.0 | 0.00 | 0.00 | 0.00 | 60 | 1027.3 |
| 20260504130118 | 52 | 275 | 4.0 | 5.0 | 0.00 | 0.00 | 0.00 | 60 | 1027.5 |
| 20260504110509 | 47 | 239 | 3.0 | 5.0 | 0.00 | 0.00 | 0.00 | 64 | 1027.1 |
| 20260504100431 | 46 | 135 | 1.0 | 1.0 | 0.00 | 0.00 | 0.00 | 63 | 1027.0 |
| 20260504081824 | 47 | 224 | 3.0 | 3.0 | 0.00 | 0.00 | 0.00 | 62 | 1027.7 |
| 20260504081320 | 47 | 269 | 3.0 | 3.0 | 0.00 | 0.00 | 0.00 | 62 | 1027.8 |
| 20260504080816 | 47 | 214 | 2.0 | 2.0 | 0.00 | 0.00 | 0.00 | 63 | 1027.6 |
| 20260504080314 | 47 | 222 | 2.0 | 2.0 | 0.00 | 0.00 | 0.00 | 63 | 1028.0 |
| 20260504070241 | 47 | 225 | 2.0 | 2.0 | 0.00 | 0.00 | 0.00 | 62 | 1028.2 |
| 20260504060201 | 48 | 244 | 3.0 | 3.0 | 0.00 | 0.00 | 0.00 | 60 | 1028.3 |
| 20260504050629 | 48 | 237 | 2.0 | 2.0 | 0.00 | 0.00 | 0.00 | 60 | 1028.6 |
| 20260504050126 | 48 | 289 | 3.0 | 5.0 | 0.00 | 0.00 | 0.00 | 59 | 1028.4 |
| 20260504045623 | 48 | 239 | 2.0 | 2.0 | 0.00 | 0.00 | 0.00 | 59 | 1028.4 |
| 20260504045118 | 48 | 290 | 4.0 | 5.0 | 0.00 | 0.00 | 0.00 | 59 | 1028.2 |
| 20260504044616 | 49 | 264 | 4.0 | 6.0 | 0.00 | 0.00 | 0.00 | 58 | 1028.4 |
| 20260504044113 | 48 | 210 | 2.0 | 2.0 | 0.00 | 0.00 | 0.00 | 59 | 1028.4 |
| 20260504043610 | 48 | 224 | 3.0 | 3.0 | 0.00 | 0.00 | 0.00 | 58 | 1028.6 |
| 20260504043107 | 49 | 280 | 3.0 | 3.0 | 0.00 | 0.00 | 0.00 | 58 | 1028.5 |
| 20260504042604 | 48 | 251 | 2.0 | 2.0 | 0.00 | 0.00 | 0.00 | 58 | 1028.6 |
| 20260504042101 | 49 | 222 | 3.0 | 5.0 | 0.00 | 0.00 | 0.00 | 58 | 1028.4 |
| 20260504041556 | 49 | 278 | 3.0 | 3.0 | 0.00 | 0.00 | 0.00 | 58 | 1028.5 |
| 20260504041053 | 49 | 295 | 3.0 | 3.0 | 0.00 | 0.00 | 0.00 | 58 | 1028.6 |
| 20260504040550 | 49 | 214 | 2.0 | 3.0 | 0.00 | 0.00 | 0.00 | 58 | 1028.7 |
| 20260504040047 | 49 | 252 | 2.0 | 3.0 | 0.00 | 0.00 | 0.00 | 58 | 1028.7 |
| 20260504035544 | 49 | 290 | 3.0 | 3.0 | 0.00 | 0.00 | 0.00 | 57 | 1028.5 |
| 20260504035040 | 49 | 248 | 3.0 | 3.0 | 0.00 | 0.00 | 0.00 | 57 | 1028.6 |
| 20260504034538 | 49 | 269 | 3.0 | 3.0 | 0.00 | 0.00 | 0.00 | 57 | 1028.7 |
| 20260504034035 | 49 | 262 | 2.0 | 2.0 | 0.00 | 0.00 | 0.00 | 57 | 1028.3 |
| 20260504033533 | 49 | 218 | 2.0 | 2.0 | 0.00 | 0.00 | 0.00 | 57 | 1028.7 |
| 20260504033030 | 50 | 256 | 1.0 | 2.0 | 0.00 | 0.00 | 0.00 | 57 | 1028.7 |
| 20260504032527 | 49 | 276 | 2.0 | 2.0 | 0.00 | 0.00 | 0.00 | 57 | 1028.5 |
| 20260504032024 | 50 | 267 | 3.0 | 3.0 | 0.00 | 0.00 | 0.00 | 57 | 1028.8 |
| 20260504031521 | 50 | 269 | 2.0 | 2.0 | 0.00 | 0.00 | 0.00 | 57 | 1028.5 |
| 20260504031016 | 50 | 260 | 2.0 | 2.0 | 0.00 | 0.00 | 0.00 | 56 | 1028.7 |
| 20260504030514 | 50 | 258 | 2.0 | 3.0 | 0.00 | 0.00 | 0.00 | 55 | 1028.6 |
| 20260504030010 | 50 | 256 | 1.0 | 2.0 | 0.00 | 0.00 | 0.00 | 55 | 1028.8 |
| 20260504025507 | 50 | 272 | 2.0 | 2.0 | 0.00 | 0.00 | 0.00 | 55 | 1028.9 |
| 20260504025004 | 51 | 237 | 3.0 | 3.0 | 0.00 | 0.00 | 0.00 | 55 | 1028.6 |
| 20260504024502 | 51 | 271 | 5.0 | 6.0 | 0.00 | 0.00 | 0.00 | 54 | 1029.0 |
| 20260504023958 | 51 | 276 | 4.0 | 6.0 | 0.00 | 0.00 | 0.00 | 54 | 1028.9 |
| 20260504023455 | 51 | 279 | 2.0 | 2.0 | 0.00 | 0.00 | 0.00 | 53 | 1028.8 |
| 20260504022950 | 51 | 245 | 3.0 | 3.0 | 0.00 | 0.00 | 0.00 | 54 | 1028.9 |
| 20260504022446 | 51 | 248 | 2.0 | 2.0 | 0.00 | 0.00 | 0.00 | 54 | 1028.7 |
| 20260504021943 | 52 | 292 | 5.0 | 7.0 | 0.00 | 0.00 | 0.00 | 53 | 1029.1 |
| 20260504021441 | 51 | 339 | 4.0 | 6.0 | 0.00 | 0.00 | 0.00 | 52 | 1029.0 |
| 20260504020938 | 52 | 294 | 1.0 | 2.0 | 0.00 | 0.00 | 0.00 | 52 | 1028.9 |
| 20260504020434 | 52 | 237 | 4.0 | 6.0 | 0.00 | 0.00 | 0.00 | 51 | 1029.2 |
| 20260504015931 | 52 | 288 | 5.0 | 6.0 | 0.00 | 0.00 | 0.00 | 50 | 1029.0 |
| 20260504015427 | 52 | 273 | 8.0 | 9.0 | 0.00 | 0.00 | 0.00 | 51 | 1029.0 |
| 20260504014923 | 52 | 294 | 6.0 | 7.0 | 0.00 | 0.00 | 0.00 | 51 | 1029.1 |
| 20260504014419 | 51 | 270 | 4.0 | 6.0 | 0.00 | 0.00 | 0.00 | 52 | 1028.9 |
| 20260504013916 | 52 | 280 | 6.0 | 6.0 | 0.00 | 0.00 | 0.00 | 51 | 1028.8 |
| 20260504013415 | 52 | 302 | 5.0 | 6.0 | 0.00 | 0.00 | 0.00 | 51 | 1028.8 |
| 20260504012910 | 52 | 272 | 3.0 | 3.0 | 0.00 | 0.00 | 0.00 | 51 | 1028.9 |
| 20260504012409 | 52 | 289 | 6.0 | 9.0 | 0.00 | 0.00 | 0.00 | 51 | 1029.0 |
| 20260504011906 | 52 | 250 | 4.0 | 6.0 | 0.00 | 0.00 | 0.00 | 51 | 1028.9 |
| 20260504011403 | 52 | 237 | 5.0 | 7.0 | 0.00 | 0.00 | 0.00 | 52 | 1028.8 |
| 20260504010858 | 52 | 255 | 3.0 | 3.0 | 0.00 | 0.00 | 0.00 | 51 | 1028.8 |
| 20260504010355 | 52 | 219 | 4.0 | 5.0 | 0.00 | 0.00 | 0.00 | 51 | 1029.0 |
| 20260504005851 | 52 | 288 | 4.0 | 5.0 | 0.00 | 0.00 | 0.00 | 50 | 1029.0 |
| 20260504005348 | 52 | 311 | 5.0 | 6.0 | 0.00 | 0.00 | 0.00 | 50 | 1029.2 |
| 20260504004845 | 52 | 241 | 6.0 | 11.0 | 0.00 | 0.00 | 0.00 | 49 | 1029.0 |
| 20260504004343 | 52 | 258 | 5.0 | 7.0 | 0.00 | 0.00 | 0.00 | 48 | 1028.7 |
| 20260504003839 | 52 | 270 | 8.0 | 9.0 | 0.00 | 0.00 | 0.00 | 47 | 1029.1 |
| 20260504003336 | 52 | 283 | 6.0 | 7.0 | 0.00 | 0.00 | 0.00 | 47 | 1028.9 |
| 20260504002833 | 52 | 301 | 11.0 | 13.0 | 0.00 | 0.00 | 0.00 | 46 | 1029.0 |
| 20260504002330 | 52 | 270 | 6.0 | 8.0 | 0.00 | 0.00 | 0.00 | 47 | 1028.9 |
| 20260504001828 | 52 | 289 | 8.0 | 11.0 | 0.00 | 0.00 | 0.00 | 48 | 1028.5 |
| 20260504001325 | 52 | 4 | 5.0 | 7.0 | 0.00 | 0.00 | 0.00 | 48 | 1028.5 |
| 20260504000821 | 52 | 280 | 11.0 | 13.0 | 0.00 | 0.00 | 0.00 | 46 | 1028.7 |
| 20260504000318 | 52 | 281 | 9.0 | 11.0 | 0.00 | 0.00 | 0.00 | 47 | 1028.8 |
| 20260503235816 | 53 | 267 | 11.0 | 17.0 | 0.00 | 0.00 | 0.00 | 45 | 1029.0 |
| 20260503235314 | 53 | 283 | 13.0 | 18.0 | 0.00 | 0.00 | 0.00 | 44 | 1028.6 |
| 20260503234811 | 53 | 271 | 7.0 | 9.0 | 0.00 | 0.00 | 0.00 | 44 | 1028.4 |
| 20260503234308 | 53 | 267 | 5.0 | 6.0 | 0.00 | 0.00 | 0.00 | 44 | 1028.6 |
| 20260503233806 | 53 | 291 | 6.0 | 7.0 | 0.00 | 0.00 | 0.00 | 44 | 1028.7 |
| 20260503233301 | 53 | 257 | 11.0 | 17.0 | 0.00 | 0.00 | 0.00 | 42 | 1028.7 |
| 20260503232759 | 53 | 297 | 5.0 | 7.0 | 0.00 | 0.00 | 0.00 | 43 | 1028.4 |
| 20260503232256 | 54 | 303 | 7.0 | 8.0 | 0.00 | 0.00 | 0.00 | 43 | 1028.5 |
| 20260503231754 | 54 | 256 | 7.0 | 9.0 | 0.00 | 0.00 | 0.00 | 43 | 1028.5 |
| 20260503231251 | 54 | 275 | 9.0 | 11.0 | 0.00 | 0.00 | 0.00 | 42 | 1028.5 |
| 20260503230746 | 54 | 305 | 11.0 | 14.0 | 0.00 | 0.00 | 0.00 | 42 | 1028.4 |
| 20260503230244 | 54 | 129 | 3.0 | 5.0 | 0.00 | 0.00 | 0.00 | 43 | 1028.2 |
| 20260503225741 | 54 | 258 | 7.0 | 10.0 | 0.00 | 0.00 | 0.00 | 43 | 1028.4 |
| 20260503225241 | 54 | 44 | 6.0 | 9.0 | 0.00 | 0.00 | 0.00 | 42 | 1028.2 |
| 20260503224738 | 54 | 291 | 7.0 | 16.0 | 0.00 | 0.00 | 0.00 | 42 | 1028.2 |
| 20260503224236 | 54 | 256 | 7.0 | 8.0 | 0.00 | 0.00 | 0.00 | 41 | 1028.3 |
| 20260503223734 | 54 | 266 | 10.0 | 14.0 | 0.00 | 0.00 | 0.00 | 42 | 1028.1 |
| 20260503223231 | 54 | 306 | 7.0 | 10.0 | 0.00 | 0.00 | 0.00 | 40 | 1028.4 |
| 20260503222727 | 54 | 276 | 10.0 | 16.0 | 0.00 | 0.00 | 0.00 | 41 | 1028.3 |
| 20260503222225 | 54 | 245 | 15.0 | 17.0 | 0.00 | 0.00 | 0.00 | 41 | 1028.6 |
| 20260503221723 | 55 | 284 | 9.0 | 10.0 | 0.00 | 0.00 | 0.00 | 41 | 1028.1 |
| 20260503221221 | 55 | 281 | 4.0 | 6.0 | 0.00 | 0.00 | 0.00 | 42 | 1028.1 |
| 20260503220717 | 55 | 284 | 9.0 | 11.0 | 0.00 | 0.00 | 0.00 | 41 | 1028.3 |
| 20260503220214 | 55 | 272 | 4.0 | 6.0 | 0.00 | 0.00 | 0.00 | 43 | 1028.3 |
| 20260503215711 | 55 | 269 | 7.0 | 8.0 | 0.00 | 0.00 | 0.00 | 42 | 1027.8 |
| 20260503215208 | 55 | 270 | 8.0 | 11.0 | 0.00 | 0.00 | 0.00 | 42 | 1028.2 |
| 20260503214706 | 55 | 294 | 8.0 | 11.0 | 0.00 | 0.00 | 0.00 | 42 | 1028.1 |
| 20260503214201 | 55 | 271 | 7.0 | 8.0 | 0.00 | 0.00 | 0.00 | 41 | 1028.2 |
| 20260503213655 | 56 | 280 | 5.0 | 9.0 | 0.00 | 0.00 | 0.00 | 42 | 1028.1 |
| 20260503213152 | 55 | 216 | 4.0 | 5.0 | 0.00 | 0.00 | 0.00 | 42 | 1027.8 |
| 20260503212649 | 56 | 289 | 7.0 | 9.0 | 0.00 | 0.00 | 0.00 | 44 | 1028.1 |
| 20260503212146 | 55 | 282 | 3.0 | 5.0 | 0.00 | 0.00 | 0.00 | 45 | 1027.8 |
| 20260503211644 | 54 | 303 | 5.0 | 7.0 | 0.00 | 0.00 | 0.00 | 46 | 1028.1 |
| 20260503211139 | 53 | 281 | 5.0 | 6.0 | 0.00 | 0.00 | 0.00 | 47 | 1028.0 |
| 20260503210636 | 53 | 241 | 5.0 | 6.0 | 0.00 | 0.00 | 0.00 | 46 | 1028.1 |
| 20260503210133 | 53 | 323 | 3.0 | 3.0 | 0.00 | 0.00 | 0.00 | 49 | 1027.7 |
| 20260503205628 | 53 | 281 | 3.0 | 3.0 | 0.00 | 0.00 | 0.00 | 47 | 1027.8 |
| 20260503205125 | 54 | 337 | 6.0 | 7.0 | 0.00 | 0.00 | 0.00 | 45 | 1028.2 |
| 20260503204621 | 53 | 295 | 4.0 | 5.0 | 0.00 | 0.00 | 0.00 | 46 | 1028.3 |
| 20260503204119 | 54 | 279 | 5.0 | 6.0 | 0.00 | 0.00 | 0.00 | 47 | 1028.1 |
| 20260503203616 | 54 | 274 | 6.0 | 7.0 | 0.00 | 0.00 | 0.00 | 45 | 1028.2 |
| 20260503203114 | 54 | 8 | 2.0 | 3.0 | 0.00 | 0.00 | 0.00 | 45 | 1028.4 |
| 20260503202611 | 53 | 249 | 5.0 | 6.0 | 0.00 | 0.00 | 0.00 | 47 | 1028.4 |
| 20260503202109 | 53 | 293 | 7.0 | 10.0 | 0.00 | 0.00 | 0.00 | 45 | 1028.4 |
| 20260503201607 | 53 | 301 | 3.0 | 3.0 | 0.00 | 0.00 | 0.00 | 47 | 1028.4 |
| 20260503201104 | 53 | 281 | 7.0 | 9.0 | 0.00 | 0.00 | 0.00 | 47 | 1028.5 |
| 20260503200600 | 53 | 255 | 7.0 | 8.0 | 0.00 | 0.00 | 0.00 | 46 | 1028.8 |
| 20260503200056 | 53 | 250 | 5.0 | 7.0 | 0.00 | 0.00 | 0.00 | 47 | 1028.8 |
| 20260503195554 | 53 | 358 | 4.0 | 7.0 | 0.00 | 0.00 | 0.00 | 47 | 1028.7 |
| 20260503195050 | 53 | 293 | 6.0 | 7.0 | 0.00 | 0.00 | 0.00 | 47 | 1028.7 |
| 20260503194547 | 53 | 278 | 7.0 | 9.0 | 0.00 | 0.00 | 0.00 | 47 | 1029.0 |
| 20260503194046 | 53 | 48 | 1.0 | 2.0 | 0.00 | 0.00 | 0.00 | 52 | 1029.1 |
| 20260503193539 | 53 | 7 | 4.0 | 5.0 | 0.00 | 0.00 | 0.00 | 49 | 1029.0 |
| 20260503193038 | 53 | 239 | 5.0 | 6.0 | 0.00 | 0.00 | 0.00 | 47 | 1029.1 |
| 20260503192535 | 53 | 241 | 4.0 | 5.0 | 0.00 | 0.00 | 0.00 | 49 | 1029.2 |
| 20260503192031 | 52 | 320 | 6.0 | 7.0 | 0.00 | 0.00 | 0.00 | 48 | 1029.3 |
| 20260503191528 | 53 | 298 | 8.0 | 10.0 | 0.00 | 0.00 | 0.00 | 47 | 1029.5 |
| 20260503191025 | 52 | 16 | 3.0 | 5.0 | 0.00 | 0.00 | 0.00 | 47 | 1029.3 |
| 20260503190522 | 52 | 264 | 3.0 | 3.0 | 0.00 | 0.00 | 0.00 | 51 | 1029.5 |
| 20260503190019 | 53 | 259 | 5.0 | 7.0 | 0.00 | 0.00 | 0.00 | 47 | 1029.9 |
| 20260503185515 | 52 | 241 | 4.0 | 6.0 | 0.00 | 0.00 | 0.00 | 50 | 1029.7 |